Flag for Germany Weather past 2 weeks in Kulmbach, Bavaria, Germany

Now
54 °F

Overcast.


Feels Like: 54 °F
Forecast: 47 / 69 °F
Wind: 3 mph from Northwest

Location: Hof

Current Time: Sep 2, 2015 at 2:28:19 AM

Latest Report: Sep 2, 2015 at 2:00 AM


Visibility: 41 mi

Pressure: 30.01 "Hg

Humidity: 88%

Dew point: 51 °F

Location of KulmbachLocation

Historic Weather in Kulmbach — Graph

°F

Kulmbach temperature yesterday

Maximum temperature yesterday: 83 °F (at 2:00 PM)
Minimum temperature yesterday: 56 °F (at 11:00 PM)
Average temperature yesterday: 68 °F

Past Weeks' High & Low Weather Summary

 TemperatureHumidityPressure
High89 °F (Aug 31, 4:00 PM)100% (Aug 19, 1:00 AM)30.31 "Hg (Aug 19, 1:00 AM)
Low47 °F (Aug 22, 6:00 AM)33% (Aug 31, 4:00 PM)29.66 "Hg (Aug 24, 7:00 PM)
Average64 °F74%30.02 "Hg
* Reported Aug 18 1:00 AM — Sep 2 1:00 AM, Kulmbach, Weather by CustomWeather, © 2015

Note: Actual official high and low records may vary slightly from our data, if they occured in-between our weather recording intervals... More about our weather records

Advertising

Kulmbach weather history for previous 24 hours

 ConditionsComfort  
Time TempWeatherWind HumidityBarometerVisibility
1:00 AM
Wed, Sep 2
56 °FOvercast.3 mph94%29.99 "Hg22 mi
11:00 PM
Tue, Sep 1
56 °FOvercast.2 mph94%29.96 "Hg40 mi
10:00 PM56 °FLight rain. Low clouds.3 mph94%29.95 "Hg8 mi
9:00 PM58 °FLight rain. Overcast.5 mph88%29.92 "Hg25 mi
8:00 PM59 °FOvercast.7 mph83%29.88 "Hg43 mi
7:00 PM67 °FOvercast.5 mph77%29.80 "Hg25 mi
6:00 PM64 °FLow clouds.5 mph87%29.81 "Hg16 mi
5:00 PM72 °FPartly sunny.9 mph55%29.78 "Hg19 mi
4:00 PM76 °FOvercast.9 mph50%29.74 "Hg12 mi
3:00 PM82 °FOvercast.6 mph36%29.70 "Hg25 mi
2:00 PM83 °FPartly sunny.5 mph39%29.70 "Hg19 mi
1:00 PM83 °FScattered clouds.6 mph39%29.71 "Hg22 mi
12:00 PM81 °FSunny.5 mph45%29.72 "Hg16 mi
10:00 AM75 °FSunny.2 mph57%29.77 "Hg19 mi
9:00 AM69 °FScattered clouds.2 mph74%29.79 "Hg17 mi
8:00 AM67 °FSunny.2 mph71%29.81 "Hg16 mi
7:00 AM63 °FSunny.1 mph83%29.82 "Hg14 mi
6:00 AM67 °FClear.2 mph67%29.81 "Hg19 mi
5:00 AM64 °FClear.1 mph83%29.82 "Hg14 mi
4:00 AM63 °FClear.1 mph89%29.83 "Hg11 mi
3:00 AM63 °FClear.1 mph95%29.83 "Hg7 mi
2:00 AM65 °FClear.2 mph92%29.83 "Hg9 mi
Weather by CustomWeather, © 2015

See weather overviewHow to use our weather pages